Regional Weather Roundup
Issued by NWS

Home | Current Version | Previous Version | Graphics & Text | Print | Product List | Glossary On
Versions: 1 2 3 4 5 6 7 8 9 10 11 12 13 14 15 16 17 18 19 20 21 22 23 24 25 26 27 28 29 30 31 32 33 34 35 36 37 38 39 40 41 42 43 44 45 46 47 48 49 50
000
ASUS43 KLMK 261102
RWRKY
KENTUCKY REGIONAL WEATHER ROUNDUP
NATIONAL WEATHER SERVICE LOUISVILLE KY
700 AM EDT SAT JUL 26 2014

NOTE "FAIR" INDICATES FEW OR NO CLOUDS BELOW 12,000 FEET
WITH NO SIGNIFICANT WEATHER AND/OR OBSTRUCTIONS TO VISIBILITY.

KYZ001>023-026-027-061>063-070>075-261200-
WESTERN AND SOUTH CENTRAL KENTUCKY

CITY           SKY/WX    TMP DP  RH WIND       PRES   REMARKS
PADUCAH        CLEAR     67  63  87 CALM      29.96R
HENDERSON      CLEAR     64  59  82 S6        29.96S
OWENSBORO      CLEAR     62  60  93 S6        29.97F
HOPKINSVILLE   CLEAR     66  66  99 S3        30.00S
BOWLING GREEN  CLEAR     64  60  87 CALM      30.01S
GLASGOW        CLEAR     62  62  99 CALM      30.01S
$$

KYZ024-025-028>034-038-045-046-053-261200-
NORTH CENTRAL KENTUCKY

CITY           SKY/WX    TMP DP  RH WIND       PRES   REMARKS
LOUISVILLE/SDF MOCLDY    69  61  75 SE5       29.97S
LOUISVILLE/LOU PTCLDY    68  61  78 CALM      29.98S
FORT KNOX      CLEAR     63  61  93 SW6       29.97S
$$

KYZ035>037-039>044-047>052-055>060-089>105-261200-
NORTHEAST KENTUCKY

CITY           SKY/WX    TMP DP  RH WIND       PRES   REMARKS
LEXINGTON      CLEAR     64  60  87 S7        30.02R
COVINGTON      MOCLDY    66  60  81 S6        29.97S
FRANKFORT      PTCLDY    64  60  87 S3        29.99S
$$

KYZ054-064>069-076>088-106>120-261200-
SOUTHEAST KENTUCKY

CITY           SKY/WX    TMP DP  RH WIND       PRES   REMARKS
JACKSON        PTCLDY    62  60  93 CALM      30.05R FOG
LONDON         CLEAR     62  59  90 CALM      30.06R
SOMERSET       CLEAR     61  61 100 CALM      30.05S FOG
MIDDLESBORO    FOG       62  62 100 CALM      30.09R VSB 1/4
MONTICELLO     SUNNY     61  60  96 CALM      30.05S FOG
$$




USA.gov is the U.S. government's official web portal to all federal, state and local government web resources and services.